Location: ??????????
(54.7560°N, 39.1389°E)
Time: 05:12:23
(UTC+00:00)

Cosmos 1766 - Pass Details

Date: 19 May 2025
Orbit: 443 x 457 km, 82.5° (Epoch: 19 June)

Event Time Altitude Azimuth Distance (km) Brightness Sun altitude
Rises 19:52:48 0° 351° (N) 2,469 8.4 -13.0°
Reaches altitude 10° 19:54:55 10° 356° (N) 1,589 7.0 -13.1°
Maximum altitude 19:58:19 56° 75° (ENE) 542 3.2 -13.3°
Enters shadow 20:00:09 24° 146° (SE) 968 4.0 -13.4°
